EW9394 Weather Reports


time (UTC)temp
F
wind
direction
speed
knots
gust
knots
rain 1hr
in
rain 24hr
in
rain mn
in
humidity
%
barometer
mb
20260506070328 61 2 2.6 2.6 0.00 0.00 0.00 80 1011.1
20260506062306 62 294 1.7 2.6 0.00 0.00 0.00 80 1011.1
20260506061801 62 312 0.9 0.9 0.00 0.00 0.00 79 1011.3
20260506061259 62 320 1.7 2.6 0.00 0.00 0.00 80 1011.3
20260506060757 62 301 4.3 5.2 0.00 0.00 0.00 80 1011.1
20260506060254 62 300 1.7 1.7 0.00 0.00 0.00 80 1011.1
20260506051226 64 306 3.5 5.2 0.00 0.00 0.00 80 1011.0
20260506050724 64 336 0.9 2.6 0.00 0.00 0.00 80 1010.6
20260506050221 64 359 0.9 2.6 0.00 0.00 0.00 80 1010.8
20260506044712 65 42 2.6 4.3 0.00 0.00 0.00 79 1010.8
20260506044209 65 299 3.5 4.3 0.00 0.00 0.00 79 1011.1
20260506043706 65 285 2.6 4.3 0.00 0.00 0.00 79 1010.8
20260506043204 66 359 4.3 6.1 0.00 0.00 0.00 79 1010.5
20260506042703 66 300 4.3 6.1 0.00 0.00 0.00 79 1010.6
20260506042201 66 276 2.6 2.6 0.00 0.00 0.00 79 1010.5
20260506041659 66 355 4.3 6.1 0.00 0.00 0.00 79 1010.4
20260506041155 67 333 3.5 5.2 0.00 0.00 0.00 79 1010.3
20260506040647 67 261 0.9 0.9 0.00 0.00 0.00 78 1010.1
20260506040144 68 354 3.5 4.3 0.00 0.00 0.00 78 1010.2
20260506035641 68 309 1.7 2.6 0.00 0.00 0.00 78 1010.1
20260506035137 69 4 3.5 5.2 0.00 0.00 0.00 78 1010.0
20260506034634 69 292 4.3 7.0 0.00 0.00 0.00 77 1010.0
20260506034131 69 278 2.6 2.6 0.00 0.00 0.00 77 1010.1
20260506033629 70 324 4.3 5.2 0.00 0.00 0.00 77 1009.7
20260506033126 70 307 2.6 2.6 0.00 0.00 0.00 77 1009.9
20260506032623 70 314 1.7 1.7 0.00 0.00 0.00 77 1010.0
20260506032120 70 296 1.7 1.7 0.00 0.00 0.00 77 1009.4
20260506031617 71 343 0.9 1.7 0.00 0.00 0.00 77 1009.4
20260506031114 71 282 2.6 4.3 0.00 0.00 0.00 76 1009.6
20260506030612 71 288 0.9 1.7 0.00 0.00 0.00 76 1009.6
20260506030109 71 2 2.6 4.3 0.00 0.00 0.00 76 1009.5
20260506025606 71 30 2.6 4.3 0.00 0.00 0.00 76 1009.3
20260506025102 72 358 3.5 5.2 0.00 0.00 0.00 76 1009.1
20260506024559 72 347 4.3 5.2 0.00 0.00 0.00 75 1009.0
20260506024056 74 358 4.3 7.8 0.00 0.00 0.00 73 1008.9
20260506023551 74 276 2.6 4.3 0.00 0.00 0.00 72 1008.2
20260506023049 74 23 2.6 4.3 0.00 0.00 0.00 72 1008.4
20260506022547 74 332 1.7 1.7 0.00 0.00 0.00 72 1008.2
20260506022044 74 348 4.3 5.2 0.00 0.00 0.00 72 1007.8
20260506021541 74 263 3.5 4.3 0.00 0.00 0.00 72 1008.0
20260506021039 74 261 0.9 0.9 0.00 0.00 0.00 71 1007.7
20260506020536 74 276 1.7 2.6 0.00 0.00 0.00 71 1007.5
20260506020033 75 291 1.7 1.7 0.00 0.00 0.00 71 1007.8
20260506015531 75 283 1.7 2.6 0.00 0.00 0.00 70 1007.5
20260506015027 75 354 2.6 4.3 0.00 0.00 0.00 70 1008.0
20260506014525 75 340 1.7 4.3 0.00 0.00 0.00 69 1007.7
20260506014021 75 286 0.9 1.7 0.00 0.00 0.00 69 1007.2
20260506013519 75 279 2.6 2.6 0.00 0.00 0.00 68 1007.1
20260506013015 76 348 3.5 4.3 0.00 0.00 0.00 70 1007.3
20260506012511 76 290 1.7 1.7 0.00 0.00 0.00 70 1007.4
20260506012009 77 312 4.3 6.1 0.00 0.00 0.00 70 1007.7
20260506011506 78 59 1.7 1.7 0.00 0.00 0.00 69 1007.4
20260506011002 78 11 2.6 4.3 0.00 0.00 0.00 68 1006.9
20260506010502 79 309 2.6 2.6 0.00 0.00 0.00 68 1007.1
20260506005957 79 331 2.6 5.2 0.00 0.00 0.00 67 1006.8
20260506005455 79 352 1.7 1.7 0.00 0.00 0.00 67 1006.8
20260506004950 79 280 0.9 1.7 0.00 0.00 0.00 67 1006.8
20260506004448 80 264 0.9 0.9 0.00 0.00 0.00 66 1006.6
20260506003944 80 298 1.7 1.7 0.00 0.00 0.00 66 1006.8
20260506003441 80 318 0.9 1.7 0.00 0.00 0.00 66 1006.8
20260506002937 81 283 0.9 1.7 0.00 0.00 0.00 65 1006.6
20260506002433 82 306 2.6 2.6 0.00 0.00 0.00 64 1006.5
20260506001929 82 340 3.5 4.3 0.00 0.00 0.00 64 1006.7
20260506001426 82 258 2.6 2.6 0.00 0.00 0.00 64 1007.0
20260506000923 83 8 2.6 4.3 0.00 0.00 0.00 62 1006.5
20260506000423 84 266 0.9 2.6 0.00 0.00 0.00 61 1006.5
20260505235917 84 8 2.6 2.6 0.00 0.00 0.00 58 1006.1
20260505235415 84 5 3.5 4.3 0.00 0.00 0.00 56 1006.0
20260505234912 84 235 1.7 1.7 0.00 0.00 0.00 59 1006.1
20260505234410 84 276 2.6 4.3 0.00 0.00 0.00 73 1006.1
20260505233906 85 279 3.5 6.1 0.00 0.00 0.00 72 1005.4
20260505233404 85 191 0.9 1.7 0.00 0.00 0.00 71 1005.4
20260505232901 86 165 1.7 1.7 0.00 0.00 0.00 70 1005.6
20260505232359 86 194 2.6 4.3 0.00 0.00 0.00 70 1005.2
20260505231855 87 175 2.6 4.3 0.00 0.00 0.00 68 1005.3
20260505231353 87 192 0.9 1.7 0.00 0.00 0.00 67 1005.5
20260505230851 87 194 2.6 2.6 0.00 0.00 0.00 67 1005.2
20260505230348 87 152 1.7 1.7 0.00 0.00 0.00 68 1005.3
20260505225844 87 198 0.9 0.9 0.00 0.00 0.00 68 1005.1
20260505225342 87 148 2.6 4.3 0.00 0.00 0.00 67 1005.1
20260505224837 87 211 1.7 1.7 0.00 0.00 0.00 67 1005.1
20260505224335 87 170 2.6 2.6 0.00 0.00 0.00 66 1005.0
20260505223832 87 192 0.9 1.7 0.00 0.00 0.00 66 1005.4
20260505223329 89 209 0.9 1.7 0.00 0.00 0.00 64 1004.8
20260505222824 89 191 3.5 5.2 0.00 0.00 0.00 63 1004.8
20260505222321 89 202 3.5 5.2 0.00 0.00 0.00 62 1005.1
20260505221818 90 194 0.9 0.9 0.00 0.00 0.00 60 1005.1
20260505221315 90 190 0.9 0.9 0.00 0.00 0.00 59 1005.1
20260505220812 91 220 1.7 2.6 0.00 0.00 0.00 56 1005.1
20260505220309 91 235 0.9 0.9 0.00 0.00 0.00 54 1004.9
20260505215807 91 157 2.6 2.6 0.00 0.00 0.00 54 1005.0
20260505215305 91 170 2.6 2.6 0.00 0.00 0.00 53 1005.0
20260505214802 92 195 0.9 0.9 0.00 0.00 0.00 53 1004.8
20260505214259 92 215 2.6 5.2 0.00 0.00 0.00 54 1005.0
20260505213756 92 248 4.3 6.1 0.00 0.00 0.00 54 1005.2
20260505213254 92 261 3.5 5.2 0.00 0.00 0.00 54 1005.3
20260505212749 92 242 0.9 0.9 0.00 0.00 0.00 54 1005.2
20260505212247 91 186 1.7 1.7 0.00 0.00 0.00 54 1005.2
20260505211743 91 186 1.7 1.7 0.00 0.00 0.00 54 1005.4
20260505211241 90 268 1.7 1.7 0.00 0.00 0.00 55 1005.3
20260505210737 91 256 2.6 4.3 0.00 0.00 0.00 56 1005.2
20260505210234 91 209 0.9 1.7 0.00 0.00 0.00 56 1005.4
20260505205732 91 192 1.7 2.6 0.00 0.00 0.00 56 1005.4
20260505205230 91 281 1.7 2.6 0.00 0.00 0.00 57 1005.2
20260505204726 91 206 1.7 2.6 0.00 0.00 0.00 58 1005.5
20260505204224 90 165 1.7 1.7 0.00 0.00 0.00 58 1005.8
20260505203721 90 205 7.0 7.8 0.00 0.00 0.00 58 1006.0
20260505203218 90 174 2.6 2.6 0.00 0.00 0.00 59 1005.8
20260505202713 89 156 6.1 7.8 0.00 0.00 0.00 60 1005.9
20260505202210 89 197 1.7 2.6 0.00 0.00 0.00 63 1005.9
20260505201706 88 196 2.6 4.3 0.00 0.00 0.00 63 1006.0
20260505201204 87 183 1.7 2.6 0.00 0.00 0.00 63 1005.8
20260505200702 87 186 5.2 8.7 0.00 0.00 0.00 64 1006.2
20260505200159 88 192 0.9 1.7 0.00 0.00 0.00 63 1006.3
20260505195654 87 201 7.0 7.0 0.00 0.00 0.00 64 1006.1
20260505195152 87 180 3.5 4.3 0.00 0.00 0.00 64 1006.1
20260505194649 88 246 3.5 6.1 0.00 0.00 0.00 64 1006.2
20260505194145 88 187 1.7 2.6 0.00 0.00 0.00 64 1006.4
20260505193642 87 232 3.5 5.2 0.00 0.00 0.00 66 1006.3
20260505193139 86 203 0.9 1.7 0.00 0.00 0.00 68 1006.2
20260505192638 86 172 4.3 6.1 0.00 0.00 0.00 67 1006.3
20260505192135 86 169 6.1 11.3 0.00 0.00 0.00 67 1006.3
20260505191633 86 179 5.2 7.8 0.00 0.00 0.00 67 1006.2
20260505191131 86 183 2.6 2.6 0.00 0.00 0.00 68 1006.1
20260505190626 84 200 0.9 0.9 0.00 0.00 0.00 70 1006.3
20260505190121 84 160 4.3 7.0 0.00 0.00 0.00 69 1006.5
20260505185619 84 167 4.3 5.2 0.00 0.00 0.00 70 1006.2
20260505185115 84 160 6.1 9.6 0.00 0.00 0.00 69 1006.2
20260505184611 84 176 5.2 6.1 0.00 0.00 0.00 68 1006.4
20260505184108 84 146 6.1 7.8 0.00 0.00 0.00 68 1006.6
20260505183605 83 217 0.9 1.7 0.00 0.00 0.00 70 1006.5
20260505183103 83 223 2.6 5.2 0.00 0.00 0.00 69 1006.4
20260505182558 84 193 4.3 5.2 0.00 0.00 0.00 69 1006.6
20260505182055 83 173 4.3 6.1 0.00 0.00 0.00 69 1006.7
20260505181552 83 214 2.6 2.6 0.00 0.00 0.00 70 1006.5
20260505181049 83 237 0.9 1.7 0.00 0.00 0.00 70 1006.5
20260505180545 83 202 6.1 8.7 0.00 0.00 0.00 69 1006.6
20260505180044 83 158 7.0 8.7 0.00 0.00 0.00 70 1006.6
20260505175543 83 176 2.6 4.3 0.00 0.00 0.00 69 1006.6
20260505175040 82 195 3.5 5.2 0.00 0.00 0.00 71 1006.5
20260505174538 83 229 5.2 8.7 0.00 0.00 0.00 70 1006.6
20260505174033 83 206 4.3 6.1 0.00 0.00 0.00 70 1006.6
20260505173530 83 187 1.7 1.7 0.00 0.00 0.00 71 1006.6
20260505173027 83 183 7.0 8.7 0.00 0.00 0.00 70 1006.7
20260505172525 84 179 1.7 2.6 0.00 0.00 0.00 69 1006.7
20260505172021 83 160 4.3 5.2 0.00 0.00 0.00 70 1006.8
20260505171516 82 230 4.3 6.1 0.00 0.00 0.00 72 1006.5
20260505171014 82 215 2.6 2.6 0.00 0.00 0.00 72 1006.7
20260505170510 82 119 5.2 7.0 0.00 0.00 0.00 71 1006.9
20260505170006 82 205 0.0 0.9 0.00 0.00 0.00 72 1006.8
20260505165502 82 179 2.6 5.2 0.00 0.00 0.00 71 1006.8
20260505164957 82 209 1.7 1.7 0.00 0.00 0.00 73 1006.5
20260505164448 81 140 1.7 2.6 0.00 0.00 0.00 72 1006.7
20260505163946 82 196 2.6 4.3 0.00 0.00 0.00 72 1006.6
20260505163444 81 194 2.6 6.1 0.00 0.00 0.00 72 1006.5
20260505162944 81 196 2.6 4.3 0.00 0.00 0.00 72 1006.6
20260505162439 81 298 3.5 5.2 0.00 0.00 0.00 72 1006.6
20260505161936 81 180 2.6 5.2 0.00 0.00 0.00 73 1006.6
20260505161432 80 171 3.5 6.1 0.00 0.00 0.00 73 1006.5
20260505160930 80 192 2.6 2.6 0.00 0.00 0.00 75 1006.5
20260505160428 80 161 6.1 8.7 0.00 0.00 0.00 73 1006.5
20260505152904 78 154 3.5 5.2 0.00 0.00 0.00 78 1006.6
20260505152402 78 196 4.3 7.0 0.00 0.00 0.00 79 1006.5
20260505151901 78 217 0.9 1.7 0.00 0.00 0.00 79 1006.7
20260505151358 77 192 4.3 6.1 0.00 0.00 0.00 80 1006.8
20260505150855 77 216 3.5 5.2 0.00 0.00 0.00 80 1006.8
20260505150352 76 199 1.7 2.6 0.00 0.00 0.00 81 1006.5
20260505140317 73 179 3.5 6.1 0.00 0.00 0.00 86 1006.4
20260505130240 72 203 6.1 8.7 0.00 0.00 0.00 88 1006.1
20260505124731 71 210 3.5 5.2 0.00 0.00 0.00 88 1006.4
20260505124228 71 175 4.3 7.0 0.00 0.00 0.00 88 1006.4
20260505123723 71 186 5.2 6.1 0.00 0.00 0.00 88 1006.1
20260505123220 71 202 3.5 5.2 0.00 0.00 0.00 88 1005.7
20260505122716 71 153 3.5 5.2 0.00 0.00 0.00 88 1005.7
20260505122214 71 183 3.5 5.2 0.00 0.00 0.00 89 1005.6
20260505121710 71 186 4.3 6.1 0.00 0.00 0.00 89 1006.0
20260505121207 71 196 4.3 5.2 0.00 0.00 0.00 88 1005.8
20260505120703 71 167 3.5 5.2 0.00 0.00 0.00 88 1005.8
20260505120159 71 167 4.3 7.0 0.00 0.00 0.00 88 1005.6
20260505115653 71 197 4.3 6.1 0.00 0.00 0.00 89 1005.7
20260505115151 71 173 6.1 8.7 0.00 0.00 0.00 89 1005.7
20260505114648 71 166 4.3 6.1 0.00 0.00 0.00 88 1005.7
20260505114144 71 150 7.0 7.8 0.00 0.00 0.00 88 1005.7
20260505113640 71 180 4.3 6.1 0.00 0.00 0.00 88 1005.5
20260505113137 71 192 3.5 5.2 0.00 0.00 0.00 88 1005.5
20260505112633 71 190 4.3 5.2 0.00 0.00 0.00 88 1005.4
20260505112132 71 194 1.7 1.7 0.00 0.00 0.00 88 1005.4
20260505111631 71 144 7.8 9.6 0.00 0.00 0.00 88 1005.7
20260505111127 71 192 5.2 7.8 0.00 0.00 0.00 88 1005.6
20260505110624 71 187 4.3 5.2 0.00 0.00 0.00 88 1005.6
20260505110121 71 209 2.6 4.3 0.00 0.00 0.00 88 1005.3
20260505102057 71 183 7.0 8.7 0.00 0.00 0.00 87 1005.5
20260505101555 71 193 7.0 8.7 0.00 0.00 0.00 87 1005.7
20260505101051 71 194 3.5 4.3 0.00 0.00 0.00 87 1005.4
20260505100548 71 153 2.6 2.6 0.00 0.00 0.00 87 1005.6
20260505100045 71 155 2.6 4.3 0.00 0.00 0.00 87 1005.5
20260505095541 71 181 4.3 5.2 0.00 0.00 0.00 87 1005.7
20260505095037 71 180 5.2 7.8 0.00 0.00 0.00 87 1005.7
20260505094534 71 192 7.0 9.6 0.00 0.00 0.00 87 1006.0
20260505094030 71 190 4.3 6.1 0.00 0.00 0.00 87 1005.9
20260505093527 71 191 6.1 8.7 0.00 0.00 0.00 87 1005.9
20260505093024 71 184 2.6 2.6 0.00 0.00 0.00 87 1005.8
20260505092521 71 170 4.3 6.1 0.00 0.00 0.00 87 1006.1
20260505092020 71 145 2.6 4.3 0.00 0.00 0.00 87 1006.0
20260505091516 71 195 3.5 5.2 0.00 0.00 0.00 87 1006.0
20260505091014 71 177 3.5 6.1 0.00 0.00 0.00 87 1006.2
20260505090512 71 219 1.7 2.6 0.00 0.00 0.00 88 1006.1
20260505090010 71 166 3.5 6.1 0.00 0.00 0.00 88 1006.0
20260505085508 71 130 7.0 11.3 0.00 0.00 0.00 88 1006.2
20260505085006 71 206 4.3 7.8 0.00 0.00 0.00 88 1006.2
20260505084503 71 193 2.6 7.8 0.00 0.00 0.00 88 1005.9
20260505084001 71 159 6.1 7.8 0.00 0.00 0.00 88 1006.0
20260505083458 71 211 5.2 6.1 0.00 0.00 0.00 88 1006.0
20260505082954 71 180 3.5 5.2 0.00 0.00 0.00 88 1006.2
20260505082450 71 178 7.0 9.6 0.00 0.00 0.00 88 1006.1
20260505081947 71 190 3.5 4.3 0.00 0.00 0.00 88 1006.3
20260505081444 71 159 3.5 5.2 0.00 0.00 0.00 87 1006.1
20260505080940 71 197 3.5 4.3 0.00 0.00 0.00 87 1006.2
20260505080437 71 179 6.1 8.7 0.00 0.00 0.00 87 1006.1
20260505075932 71 178 4.3 7.0 0.00 0.00 0.00 87 1006.2
20260505075429 71 152 6.1 7.8 0.00 0.00 0.00 87 1006.5
20260505074927 71 160 1.7 2.6 0.00 0.00 0.00 86 1006.4
20260505074424 71 191 4.3 6.1 0.00 0.00 0.00 86 1006.5
20260505073921 71 172 5.2 7.0 0.00 0.00 0.00 86 1006.7
20260505073419 71 170 2.6 4.3 0.00 0.00 0.00 86 1006.8
20260505072916 71 173 4.3 7.0 0.00 0.00 0.00 86 1006.9
20260505072412 72 169 2.6 4.3 0.00 0.00 0.00 85 1007.0
20260505071908 72 222 4.3 6.1 0.00 0.00 0.00 85 1006.9
20260505071404 72 179 6.1 7.8 0.00 0.00 0.00 85 1007.0
20260505070902 72 194 2.6 2.6 0.00 0.00 0.00 84 1006.7